TFD1 VVCI-VVDN

Flight info

Callsign TFD1
Flight time N/A
Altitude 34000
Route VANUC1A VANUC DCT VIDAD Q1 HATIN Q1 CAHEO CAHEO1N
Aircraft A321/M-SDE3FGHIRWY/LB1

Departure

Time 2026-04-15 16:29
Airport Cat Bi International Airport (VVCI)

Arrival

Time N/A
Airport Da Nang International Airport (VVDN)
Time Latitude Longitude Altitude Speed Heading
2026-04-15 15:55 20.82169 106.72572 28 ft 0 kts 342°
2026-04-15 16:08 20.82167 106.72572 25 ft 1 kts 342°
2026-04-15 16:08 20.82151 106.72578 28 ft 3 kts 342°
2026-04-15 16:08 20.82133 106.72585 27 ft 3 kts 333°
2026-04-15 16:08 20.82115 106.72596 27 ft 3 kts 320°
2026-04-15 16:09 20.82101 106.72611 28 ft 3 kts 303°
2026-04-15 16:09 20.82096 106.72620 27 ft 0 kts 297°
2026-04-15 16:15 20.82098 106.72613 25 ft 3 kts 291°
2026-04-15 16:15 20.82101 106.72593 25 ft 2 kts 267°
2026-04-15 16:16 20.82096 106.72575 26 ft 3 kts 239°
2026-04-15 16:16 20.82065 106.72561 25 ft 7 kts 187°
2026-04-15 16:16 20.82023 106.72567 28 ft 3 kts 168°
2026-04-15 16:16 20.81996 106.72571 25 ft 6 kts 179°
2026-04-15 16:17 20.81955 106.72540 25 ft 9 kts 240°
2026-04-15 16:17 20.81930 106.72481 25 ft 8 kts 258°
2026-04-15 16:17 20.81918 106.72426 25 ft 7 kts 252°
2026-04-15 16:17 20.81907 106.72389 27 ft 0 kts 253°
2026-04-15 16:22 20.81899 106.72361 25 ft 9 kts 252°
2026-04-15 16:23 20.81880 106.72303 26 ft 7 kts 245°
2026-04-15 16:23 20.81848 106.72271 24 ft 6 kts 197°
2026-04-15 16:23 20.81772 106.72281 24 ft 14 kts 166°
2026-04-15 16:23 20.81696 106.72279 24 ft 10 kts 208°
2026-04-15 16:24 20.81670 106.72214 24 ft 15 kts 244°
2026-04-15 16:24 20.81621 106.72078 24 ft 21 kts 251°
2026-04-15 16:24 20.81580 106.71935 25 ft 19 kts 253°
2026-04-15 16:24 20.81541 106.71803 24 ft 18 kts 252°
2026-04-15 16:25 20.81504 106.71679 26 ft 17 kts 251°
2026-04-15 16:25 20.81461 106.71536 26 ft 28 kts 255°
2026-04-15 16:25 20.81392 106.71313 26 ft 31 kts 250°
2026-04-15 16:25 20.81328 106.71102 29 ft 27 kts 250°
2026-04-15 16:26 20.81294 106.70959 25 ft 15 kts 273°
2026-04-15 16:26 20.81318 106.70859 26 ft 12 kts 293°
2026-04-15 16:26 20.81376 106.70842 26 ft 8 kts 50°
2026-04-15 16:26 20.81366 106.70887 28 ft 6 kts 134°
2026-04-15 16:27 20.81331 106.70908 28 ft 5 kts 153°
2026-04-15 16:27 20.81301 106.70924 26 ft 5 kts 153°
2026-04-15 16:27 20.81290 106.70946 30 ft 3 kts 102°
2026-04-15 16:27 20.81292 106.70974 30 ft 8 kts 79°
2026-04-15 16:28 20.81366 106.71229 27 ft 70 kts 73°
2026-04-15 16:28 20.81575 106.71932 23 ft 126 kts 71°
2026-04-15 16:28 20.81863 106.72981 56 ft 163 kts 75°
2026-04-15 16:28 20.82226 106.74147 574 ft 165 kts 72°
2026-04-15 16:29 20.82602 106.75305 1078 ft 168 kts 75°
2026-04-15 16:29 20.82654 106.76596 1203 ft 187 kts 113°
2026-04-15 16:29 20.81851 106.77732 1410 ft 201 kts 143°
2026-04-15 16:29 20.80529 106.78333 1645 ft 220 kts 174°
2026-04-15 16:30 20.78977 106.78030 1902 ft 244 kts 205°
2026-04-15 16:30 20.77520 106.77127 2829 ft 237 kts 209°
2026-04-15 16:30 20.76121 106.76198 3679 ft 236 kts 209°
2026-04-15 16:30 20.74707 106.75293 4382 ft 238 kts 208°
2026-04-15 16:31 20.73235 106.74418 4885 ft 250 kts 207°
2026-04-15 16:31 20.71679 106.73507 5392 ft 258 kts 208°
2026-04-15 16:31 20.70091 106.72575 5979 ft 263 kts 207°
2026-04-15 16:31 20.68357 106.71953 6566 ft 267 kts 186°
2026-04-15 16:32 20.66491 106.71937 7186 ft 269 kts 180°
2026-04-15 16:32 20.64624 106.72007 7767 ft 273 kts 180°
2026-04-15 16:32 20.62706 106.72090 8339 ft 279 kts 180°
2026-04-15 16:32 20.60752 106.72167 8916 ft 283 kts 181°
2026-04-15 16:33 20.58766 106.72211 9516 ft 287 kts 182°
2026-04-15 16:33 20.56755 106.72186 10045 ft 293 kts 184°
2026-04-15 16:33 20.54649 106.72115 10201 ft 313 kts 184°
2026-04-15 16:33 20.52398 106.72174 10344 ft 334 kts 179°
2026-04-15 16:34 20.50022 106.72439 10499 ft 352 kts 175°
2026-04-15 16:34 20.47535 106.72772 10656 ft 368 kts 175°
2026-04-15 16:34 20.44947 106.73111 10974 ft 378 kts 175°
2026-04-15 16:34 20.42315 106.73437 11443 ft 383 kts 176°
2026-04-15 16:35 20.39652 106.73719 11935 ft 387 kts 178°
2026-04-15 16:35 20.36957 106.73936 12481 ft 389 kts 179°
2026-04-15 16:35 20.34246 106.74088 13068 ft 390 kts 180°
2026-04-15 16:35 20.31525 106.74193 13656 ft 392 kts 180°
2026-04-15 16:36 20.28832 106.74337 14162 ft 394 kts 179°
2026-04-15 16:36 20.26079 106.74561 14570 ft 400 kts 177°
2026-04-15 16:36 20.23285 106.74864 14904 ft 406 kts 176°
2026-04-15 16:36 20.20472 106.75225 15380 ft 408 kts 175°
2026-04-15 16:37 20.17656 106.75605 15890 ft 408 kts 175°
2026-04-15 16:37 20.14842 106.76002 16414 ft 408 kts 175°
2026-04-15 16:37 20.12031 106.76415 16949 ft 407 kts 174°
2026-04-15 16:37 20.09224 106.76822 17446 ft 408 kts 176°
2026-04-15 16:38 20.06364 106.77030 17561 ft 417 kts 181°
2026-04-15 16:38 20.03446 106.77039 17861 ft 420 kts 183°
2026-04-15 16:38 20.00515 106.77007 18241 ft 422 kts 183°
2026-04-15 16:38 19.97572 106.77039 18591 ft 424 kts 180°
2026-04-15 16:39 19.94617 106.77245 18942 ft 427 kts 178°
2026-04-15 16:39 19.91654 106.77593 19286 ft 429 kts 175°
2026-04-15 16:39 19.88693 106.78059 19646 ft 431 kts 174°
2026-04-15 16:39 19.85752 106.78473 19914 ft 434 kts 176°
2026-04-15 16:40 19.82687 106.78762 20124 ft 438 kts 179°
2026-04-15 16:40 19.79681 106.78943 20481 ft 439 kts 180°
2026-04-15 16:40 19.76636 106.79079 20921 ft 437 kts 181°
2026-04-15 16:40 19.73597 106.79272 21329 ft 440 kts 175°
2026-04-15 16:41 19.70570 106.79972 21458 ft 450 kts 167°
2026-04-15 16:41 19.67577 106.80991 21783 ft 453 kts 163°
2026-04-15 16:41 19.64617 106.82154 22140 ft 455 kts 162°
2026-04-15 16:41 19.61682 106.83417 22533 ft 455 kts 160°
2026-04-15 16:42 19.58775 106.84758 22875 ft 457 kts 160°
2026-04-15 16:42 19.55791 106.85924 23145 ft 458 kts 165°
2026-04-15 16:42 19.52735 106.86897 23434 ft 459 kts 167°
2026-04-15 16:42 19.49647 106.87790 23687 ft 460 kts 168°
2026-04-15 16:43 19.46551 106.88689 23954 ft 462 kts 167°
2026-04-15 16:43 19.43461 106.89640 24226 ft 464 kts 166°
2026-04-15 16:43 19.40374 106.90653 24496 ft 465 kts 166°
2026-04-15 16:43 19.37288 106.91715 24761 ft 467 kts 165°
2026-04-15 16:44 19.34203 106.92806 25026 ft 468 kts 165°
2026-04-15 16:44 19.31111 106.93905 25277 ft 469 kts 165°
2026-04-15 16:44 19.28006 106.95001 25542 ft 470 kts 164°
2026-04-15 16:44 19.24892 106.96085 25788 ft 471 kts 165°
2026-04-15 16:45 19.21766 106.97155 26040 ft 473 kts 165°
2026-04-15 16:45 19.18671 106.98205 26298 ft 474 kts 165°
2026-04-15 16:45 19.15527 106.99273 26558 ft 475 kts 165°
2026-04-15 16:45 19.12374 107.00347 26797 ft 477 kts 165°
2026-04-15 16:46 19.09210 107.01426 27040 ft 478 kts 165°
2026-04-15 16:46 19.06040 107.02505 27286 ft 479 kts 165°
2026-04-15 16:46 19.02868 107.03589 27580 ft 478 kts 165°
2026-04-15 16:46 18.99707 107.04672 27923 ft 477 kts 165°
2026-04-15 16:47 18.96554 107.05757 28280 ft 475 kts 165°
2026-04-15 16:47 18.93405 107.06840 28578 ft 475 kts 164°
2026-04-15 16:47 18.90262 107.07919 28887 ft 475 kts 165°
2026-04-15 16:47 18.87128 107.08988 29234 ft 473 kts 165°
2026-04-15 16:48 18.83997 107.10048 29569 ft 472 kts 165°
2026-04-15 16:48 18.80871 107.11107 29778 ft 471 kts 166°
2026-04-15 16:48 18.77753 107.12168 29820 ft 470 kts 165°
2026-04-15 16:49 18.71518 107.14296 29803 ft 471 kts 165°
2026-04-15 16:49 18.65325 107.16402 29803 ft 471 kts 165°
2026-04-15 16:50 18.53420 107.20662 29816 ft 473 kts 163°
2026-04-15 16:50 18.41009 107.25175 29812 ft 472 kts 164°
2026-04-15 16:51 18.28594 107.29622 29813 ft 472 kts 164°
2026-04-15 16:51 18.16128 107.34111 29825 ft 473 kts 163°
2026-04-15 16:52 18.03701 107.38564 29824 ft 474 kts 163°
2026-04-15 16:52 17.91147 107.43062 29827 ft 473 kts 164°
2026-04-15 16:53 17.78773 107.47484 29825 ft 472 kts 164°
2026-04-15 16:53 17.66316 107.51928 29828 ft 473 kts 164°
2026-04-15 16:54 17.54704 107.56078 29827 ft 473 kts 164°
2026-04-15 16:54 17.48466 107.58300 29831 ft 473 kts 164°
2026-04-15 16:55 17.42236 107.60520 29829 ft 473 kts 164°
2026-04-15 16:55 17.36012 107.62731 29657 ft 473 kts 164°
2026-04-15 16:55 17.32903 107.63834 29234 ft 471 kts 164°
2026-04-15 16:56 17.29801 107.64937 28757 ft 471 kts 164°
2026-04-15 16:56 17.26689 107.66043 28241 ft 472 kts 164°
2026-04-15 16:56 17.23580 107.67149 27737 ft 472 kts 164°
2026-04-15 16:56 17.20467 107.68256 27241 ft 473 kts 164°
2026-04-15 16:57 17.17349 107.69363 26744 ft 474 kts 164°
2026-04-15 16:57 17.14224 107.70471 26274 ft 475 kts 163°
2026-04-15 16:57 17.11081 107.71569 25803 ft 477 kts 163°
2026-04-15 16:57 17.07926 107.72671 25336 ft 478 kts 163°
2026-04-15 16:58 17.04776 107.73785 24879 ft 478 kts 164°
2026-04-15 16:58 17.01620 107.74908 24433 ft 479 kts 163°
2026-04-15 16:58 16.98465 107.76031 23992 ft 479 kts 162°
2026-04-15 16:58 16.95317 107.77150 23556 ft 477 kts 162°
2026-04-15 16:59 16.92179 107.78263 23072 ft 475 kts 162°
2026-04-15 16:59 16.89096 107.79356 22809 ft 474 kts 162°
2026-04-15 16:59 16.85979 107.80460 22793 ft 472 kts 162°
2026-04-15 16:59 16.82893 107.81553 22264 ft 465 kts 162°
2026-04-15 17:00 16.79837 107.82633 21475 ft 462 kts 163°
2026-04-15 17:00 16.76811 107.83702 20767 ft 457 kts 163°
2026-04-15 17:00 16.73814 107.84758 20059 ft 453 kts 162°
2026-04-15 17:00 16.70836 107.85807 19357 ft 450 kts 162°
2026-04-15 17:01 16.67882 107.86847 18683 ft 446 kts 162°
2026-04-15 17:01 16.64946 107.87884 18014 ft 443 kts 162°
2026-04-15 17:01 16.62039 107.88913 17281 ft 440 kts 162°
2026-04-15 17:01 16.59156 107.89934 16610 ft 435 kts 162°
2026-04-15 17:02 16.56312 107.90941 15956 ft 430 kts 162°
2026-04-15 17:02 16.53489 107.91936 15306 ft 425 kts 162°
2026-04-15 17:02 16.50701 107.92916 14670 ft 421 kts 162°
2026-04-15 17:02 16.47934 107.93888 14052 ft 417 kts 162°
2026-04-15 17:03 16.45194 107.94853 13410 ft 414 kts 162°
2026-04-15 17:03 16.42517 107.95798 12720 ft 411 kts 162°
2026-04-15 17:03 16.39816 107.96749 12060 ft 407 kts 162°
2026-04-15 17:03 16.37165 107.97681 11724 ft 396 kts 162°
2026-04-15 17:04 16.34584 107.98589 11273 ft 389 kts 162°
2026-04-15 17:04 16.32028 107.99485 10732 ft 386 kts 162°
2026-04-15 17:04 16.29494 108.00375 10281 ft 380 kts 162°
2026-04-15 17:04 16.27035 108.01238 10162 ft 365 kts 162°
2026-04-15 17:05 16.24679 108.02067 10058 ft 350 kts 162°
2026-04-15 17:05 16.22419 108.02864 9947 ft 336 kts 162°
2026-04-15 17:05 16.20241 108.03628 9833 ft 324 kts 162°
2026-04-15 17:05 16.18145 108.04363 9715 ft 312 kts 162°
2026-04-15 17:06 16.16107 108.05004 9539 ft 302 kts 168°
2026-04-15 17:06 16.14065 108.05457 9195 ft 298 kts 168°
2026-04-15 17:06 16.12041 108.05908 8826 ft 297 kts 168°
2026-04-15 17:06 16.10037 108.06358 8584 ft 290 kts 168°
2026-04-15 17:07 16.08100 108.06796 8459 ft 280 kts 168°
2026-04-15 17:07 16.06230 108.07219 8307 ft 270 kts 168°
2026-04-15 17:07 16.04406 108.07628 8021 ft 267 kts 168°
2026-04-15 17:07 16.02619 108.08026 7704 ft 265 kts 168°
2026-04-15 17:08 16.00813 108.08389 7380 ft 264 kts 171°
2026-04-15 17:08 15.99006 108.08668 7095 ft 261 kts 172°
2026-04-15 17:08 15.97228 108.08912 6881 ft 255 kts 172°
2026-04-15 17:08 15.95478 108.09143 6623 ft 252 kts 172°
2026-04-15 17:09 15.93739 108.09374 6314 ft 252 kts 172°
2026-04-15 17:09 15.92002 108.09610 6002 ft 251 kts 172°
2026-04-15 17:09 15.90300 108.09846 5804 ft 241 kts 172°
2026-04-15 17:09 15.88673 108.10072 5611 ft 232 kts 172°
2026-04-15 17:10 15.87089 108.10296 5320 ft 228 kts 172°
2026-04-15 17:10 15.85524 108.10518 5023 ft 225 kts 172°
2026-04-15 17:10 15.83985 108.10742 4738 ft 222 kts 172°
2026-04-15 17:10 15.82510 108.11154 4430 ft 219 kts 149°
2026-04-15 17:11 15.81755 108.11831 4223 ft 218 kts 127°
2026-04-15 17:11 15.81256 108.13270 3995 ft 210 kts 91°
2026-04-15 17:11 15.81570 108.14687 3776 ft 199 kts 65°
2026-04-15 17:12 15.82965 108.17166 3068 ft 198 kts 58°
2026-04-15 17:12 15.83694 108.18373 3012 ft 199 kts 58°
2026-04-15 17:12 15.84432 108.19595 3012 ft 199 kts 58°
2026-04-15 17:12 15.85200 108.20797 3007 ft 200 kts 50°
2026-04-15 17:13 15.86265 108.21708 3010 ft 200 kts 28°
2026-04-15 17:13 15.87578 108.22157 2894 ft 199 kts
2026-04-15 17:13 15.88946 108.22083 2686 ft 196 kts 351°
2026-04-15 17:13 15.90295 108.21884 2445 ft 193 kts 350°
2026-04-15 17:14 15.91579 108.21697 2245 ft 178 kts 351°
2026-04-15 17:14 15.92763 108.21526 2009 ft 165 kts 351°
2026-04-15 17:14 15.93873 108.21364 1803 ft 158 kts 351°
2026-04-15 17:14 15.94950 108.21208 1609 ft 155 kts 350°
2026-04-15 17:15 15.96014 108.21053 1413 ft 153 kts 351°
2026-04-15 17:15 15.97054 108.20903 1233 ft 152 kts 352°
2026-04-15 17:15 15.98101 108.20750 1002 ft 153 kts 352°
2026-04-15 17:15 15.99147 108.20594 830 ft 151 kts 352°
2026-04-15 17:16 16.00193 108.20439 627 ft 152 kts 352°
2026-04-15 17:16 16.01235 108.20286 433 ft 151 kts 352°
2026-04-15 17:16 16.02275 108.20146 224 ft 150 kts 351°
2026-04-15 17:16 16.03295 108.19995 34 ft 143 kts 351°
2026-04-15 17:17 16.04093 108.19880 32 ft 87 kts 352°